When you browse on this site, cookies collect data to enhance your experience and personalize the content and advertising you see.
Visit our Privacy Policy to learn more. By continuing to use the site, you agree to this use of cookies and data.
EN

Hourly Weather Lyubech

Today, 15 August, Saturday

Time Temperature Precipitation Wind Pressure Humidity
00:00 +12°C° 0 mm 1 mps 751 mmHg 82%
01:00 +12°C° 0 mm 1 mps 751 mmHg 83%
02:00 +10°C° 0 mm 0 mps 751 mmHg 84%
03:00 +10°C° 0 mm 0 mps 751 mmHg 85%
04:00 +10°C° 0 mm 0 mps 751 mmHg 86%
05:00 +10°C° 0 mm 0 mps 751 mmHg 87%
06:00 +12°C° 0 mm 0 mps 751 mmHg 79%
07:00 +14°C° 0 mm 0 mps 751 mmHg 72%
08:00 +16°C° 0 mm 0 mps 751 mmHg 65%
09:00 +18°C° 0 mm 0 mps 751 mmHg 59%
10:00 +19°C° 0 mm 0 mps 751 mmHg 54%
11:00 +23°C° 0 mm 1 mps 751 mmHg 48%
12:00 +23°C° 0 mm 1 mps 751 mmHg 46%
13:00 +24°C° 0 mm 1 mps 751 mmHg 44%
14:00 +24°C° 0 mm 1 mps 751 mmHg 43%
15:00 +24°C° 0 mm 1 mps 750 mmHg 43%
16:00 +24°C° 0 mm 1 mps 750 mmHg 44%
17:00 +21°C° 0 mm 0 mps 750 mmHg 45%
18:00 +19°C° 0 mm 0 mps 750 mmHg 51%
19:00 +17°C° 0 mm 0 mps 750 mmHg 57%
20:00 +15°C° 0 mm 0 mps 750 mmHg 63%
21:00 +16°C° 0 mm 1 mps 750 mmHg 66%
22:00 +15°C° 0 mm 1 mps 750 mmHg 68%
23:00 +15°C° 0 mm 1 mps 750 mmHg 70%

Tomorrow, 16 August, Sunday

Time Temperature Precipitation Wind Pressure Humidity
00:00 +14°C° 0 mm 1 mps 750 mmHg 71%
01:00 +14°C° 0 mm 1 mps 750 mmHg 73%
02:00 +14°C° 0 mm 2 mps 749 mmHg 74%
03:00 +14°C° 0 mm 2 mps 749 mmHg 77%
04:00 +13°C° 0 mm 2 mps 749 mmHg 79%
05:00 +13°C° 0 mm 2 mps 749 mmHg 81%
06:00 +15°C° 0 mm 2 mps 750 mmHg 76%
07:00 +17°C° 0 mm 2 mps 750 mmHg 70%
08:00 +19°C° 0 mm 2 mps 750 mmHg 65%
09:00 +21°C° 0 mm 3 mps 750 mmHg 61%
10:00 +22°C° 0 mm 3 mps 750 mmHg 57%
11:00 +25°C° 0 mm 3 mps 750 mmHg 54%
12:00 +25°C° 0.1 mm 3 mps 750 mmHg 53%
13:00 +26°C° 0.1 mm 4 mps 749 mmHg 53%
14:00 +26°C° 0.1 mm 4 mps 749 mmHg 52%
15:00 +26°C° 0.1 mm 4 mps 749 mmHg 54%
16:00 +26°C° 0.1 mm 3 mps 749 mmHg 56%
17:00 +26°C° 0.1 mm 3 mps 748 mmHg 59%
18:00 +24°C° 0 mm 3 mps 749 mmHg 66%
19:00 +21°C° 0 mm 2 mps 749 mmHg 72%
20:00 +19°C° 0 mm 2 mps 749 mmHg 79%
21:00 +19°C° 0 mm 2 mps 749 mmHg 82%
22:00 +18°C° 0 mm 2 mps 749 mmHg 85%
23:00 +17°C° 0 mm 2 mps 749 mmHg 87%

Day after tomorrow, 17 August, Monday

Time Temperature Precipitation Wind Pressure Humidity
00:00 +17°C° 0 mm 2 mps 749 mmHg 89%
01:00 +17°C° 0 mm 2 mps 749 mmHg 90%
02:00 +16°C° 0 mm 2 mps 749 mmHg 91%
03:00 +16°C° 0 mm 2 mps 749 mmHg 92%
04:00 +16°C° 0 mm 2 mps 749 mmHg 92%
05:00 +16°C° 0 mm 2 mps 749 mmHg 93%
06:00 +17°C° 0 mm 2 mps 749 mmHg 86%
07:00 +19°C° 0 mm 2 mps 749 mmHg 80%
08:00 +21°C° 0 mm 2 mps 749 mmHg 73%
09:00 +24°C° 0 mm 2 mps 749 mmHg 67%
10:00 +25°C° 0 mm 2 mps 749 mmHg 60%
11:00 +27°C° 0 mm 2 mps 749 mmHg 54%
12:00 +28°C° 0 mm 2 mps 749 mmHg 51%
13:00 +28°C° 0 mm 2 mps 748 mmHg 48%
14:00 +29°C° 0 mm 2 mps 748 mmHg 45%
15:00 +28°C° 0 mm 2 mps 748 mmHg 48%
16:00 +28°C° 0 mm 2 mps 748 mmHg 51%
17:00 +27°C° 0 mm 2 mps 747 mmHg 54%
18:00 +26°C° 0 mm 1 mps 747 mmHg 58%
19:00 +24°C° 0 mm 1 mps 747 mmHg 61%
20:00 +23°C° 0 mm 1 mps 747 mmHg 65%
21:00 +22°C° 0 mm 1 mps 747 mmHg 67%
22:00 +21°C° 0 mm 1 mps 747 mmHg 70%
23:00 +20°C° 0 mm 1 mps 747 mmHg 72%

18 August, Tuesday

Time Temperature Precipitation Wind Pressure Humidity
00:00 +20°C° 0 mm 1 mps 747 mmHg 72%
01:00 +17°C° 0 mm 0 mps 747 mmHg 73%
02:00 +17°C° 0 mm 0 mps 747 mmHg 73%
03:00 +16°C° 0 mm 0 mps 747 mmHg 73%
04:00 +18°C° 0 mm 1 mps 747 mmHg 74%
05:00 +18°C° 0 mm 1 mps 746 mmHg 74%
06:00 +19°C° 0 mm 1 mps 746 mmHg 69%
07:00 +21°C° 0 mm 1 mps 746 mmHg 64%
08:00 +23°C° 0 mm 1 mps 747 mmHg 59%
09:00 +25°C° 0 mm 2 mps 746 mmHg 53%
10:00 +26°C° 0 mm 2 mps 746 mmHg 48%
11:00 +28°C° 0 mm 3 mps 746 mmHg 42%
12:00 +29°C° 0 mm 3 mps 746 mmHg 39%
13:00 +30°C° 0 mm 3 mps 745 mmHg 36%
14:00 +30°C° 0 mm 3 mps 745 mmHg 33%
15:00 +30°C° 0 mm 3 mps 745 mmHg 36%
16:00 +30°C° 0 mm 2 mps 745 mmHg 39%
17:00 +29°C° 0 mm 2 mps 744 mmHg 42%
18:00 +27°C° 0 mm 2 mps 744 mmHg 46%
19:00 +25°C° 0 mm 2 mps 744 mmHg 49%
20:00 +22°C° 0 mm 3 mps 744 mmHg 53%
21:00 +21°C° 0 mm 3 mps 744 mmHg 53%
22:00 +21°C° 0 mm 3 mps 744 mmHg 52%
23:00 +20°C° 0 mm 3 mps 743 mmHg 52%

19 August, Wednesday

Time Temperature Precipitation Wind Pressure Humidity
00:00 +20°C° 0 mm 3 mps 743 mmHg 52%
01:00 +20°C° 0 mm 3 mps 743 mmHg 52%
02:00 +19°C° 0 mm 3 mps 743 mmHg 52%
03:00 +19°C° 0 mm 3 mps 743 mmHg 53%
04:00 +18°C° 0 mm 3 mps 742 mmHg 54%
05:00 +18°C° 0 mm 3 mps 742 mmHg 55%
06:00 +19°C° 0 mm 3 mps 742 mmHg 55%
07:00 +20°C° 0 mm 3 mps 742 mmHg 54%
08:00 +20°C° 0 mm 3 mps 742 mmHg 54%
09:00 +23°C° 0 mm 4 mps 742 mmHg 50%
10:00 +26°C° 0 mm 5 mps 742 mmHg 46%
11:00 +28°C° 0 mm 5 mps 743 mmHg 43%
12:00 +29°C° 0 mm 5 mps 742 mmHg 40%
13:00 +30°C° 0 mm 5 mps 742 mmHg 37%
14:00 +32°C° 0 mm 6 mps 742 mmHg 34%
15:00 +32°C° 0 mm 5 mps 742 mmHg 38%
16:00 +30°C° 0 mm 4 mps 741 mmHg 41%
17:00 +30°C° 0 mm 3 mps 741 mmHg 44%
18:00 +28°C° 0.1 mm 3 mps 741 mmHg 49%
19:00 +26°C° 0.1 mm 3 mps 741 mmHg 54%
20:00 +23°C° 0.1 mm 2 mps 741 mmHg 59%
21:00 +23°C° 0.4 mm 2 mps 741 mmHg 65%
22:00 +21°C° 0.4 mm 2 mps 741 mmHg 71%
23:00 +21°C° 0.4 mm 1 mps 741 mmHg 76%

20 August, Thursday

Time Temperature Precipitation Wind Pressure Humidity
00:00 +20°C° 0.1 mm 2 mps 741 mmHg 79%
01:00 +20°C° 0.1 mm 3 mps 741 mmHg 82%
02:00 +20°C° 0.1 mm 3 mps 742 mmHg 85%
03:00 +19°C° 0 mm 3 mps 742 mmHg 87%
04:00 +19°C° 0 mm 3 mps 742 mmHg 90%
05:00 +18°C° 0 mm 3 mps 742 mmHg 92%
06:00 +19°C° 0 mm 3 mps 742 mmHg 89%
07:00 +20°C° 0 mm 2 mps 742 mmHg 86%
08:00 +21°C° 0 mm 2 mps 742 mmHg 84%
09:00 +22°C° 0 mm 3 mps 743 mmHg 77%
10:00 +24°C° 0 mm 3 mps 743 mmHg 71%
11:00 +25°C° 0 mm 4 mps 743 mmHg 65%
12:00 +26°C° 0 mm 4 mps 743 mmHg 63%
13:00 +26°C° 0 mm 4 mps 743 mmHg 61%
14:00 +27°C° 0 mm 4 mps 743 mmHg 59%
15:00 +26°C° 0.3 mm 3 mps 744 mmHg 62%
16:00 +25°C° 0.3 mm 3 mps 744 mmHg 66%
17:00 +25°C° 0.3 mm 3 mps 744 mmHg 70%
18:00 +24°C° 0.5 mm 3 mps 744 mmHg 75%
19:00 +21°C° 0.5 mm 2 mps 744 mmHg 79%
20:00 +20°C° 0.5 mm 2 mps 745 mmHg 84%
21:00 +20°C° 0.5 mm 2 mps 745 mmHg 86%
22:00 +19°C° 0.5 mm 2 mps 745 mmHg 89%
23:00 +19°C° 0.5 mm 2 mps 745 mmHg 91%
Show more